[[{"header":{"parameterUnit":"m.s-1","parameterCategory":1,"la1":30.2991,"la2":30.254,"lo1":-89.0895,"lo2":-89.0444,"dy":0.0017,"dx":0.0017,"nx":28,"ny":28,"refTime":"2025-05-29T21:00:00:Z","depth":0,"parameterNumber":2,"parameterNumberName":"U-component_of_WINDS"},"data":[0,0,0,0,0,0,0,0,0,0,0,0,0,0,0,0,0,0,0,0,0,0,0,0,0,0,0,0,0,0,0,0,0,0,0,0,0,0,0,0,0,0,0,0,0,0,0,0,0,0,0,0,0,0,0,0,0,0,4.382,4.3821,0,4.3954,4.3956,4.3957,4.3956,4.3955,4.3953,4.3951,4.4096,4.4101,4.4107,0,0,0,0,0,0,0,0,0,0,0,0,0,4.3571,4.3576,4.382,4.3821,4.3823,4.3954,4.3956,4.3957,4.3957,4.3954,4.3952,4.395,4.4094,4.4101,4.4107,0,0,0,0,0,0,0,0,0,0,0,0,0,4.369,4.3577,4.3819,4.3838,4.3841,4.3953,4.3956,4.3958,4.3957,4.3954,4.3952,4.3949,4.4092,4.41,4.4108,4.4213,0,0,4.4133,4.4137,0,0,0,0,0,0,0,0,4.3683,4.3699,4.3834,4.3837,4.3841,4.3935,4.3921,4.4044,4.3958,4.3913,4.3951,4.3948,4.4045,4.4057,4.4088,4.4219,4.4226,4.4134,4.4139,4.4143,4.4145,0,0,0,0,0,0,0,4.3675,4.3693,4.3873,4.3836,4.384,4.3843,4.3857,4.3944,4.3993,4.3917,4.3917,4.3933,4.4047,4.408,4.4092,4.4228,4.4134,4.4141,4.4146,4.415,4.4456,4.446,0,0,0,0,0,0,4.3662,4.3686,4.3869,4.3877,4.3753,4.3849,4.3865,4.3908,4.3992,4.4002,4.3935,4.3932,4.4068,4.4082,4.4097,4.4228,4.4143,4.415,4.4155,4.4453,4.4457,4.4461,0,0,0,0,0,0,4.3656,4.3678,4.3863,4.3782,4.3806,4.3856,4.3905,4.3912,4.3946,4.4005,4.4015,4.396,4.4066,4.4085,4.4184,4.4233,4.4154,4.4162,4.445,4.4455,4.4459,4.4489,0,0,0,0,0,0,4.3649,4.3676,4.3714,4.3783,4.381,4.3946,4.3908,4.3916,4.3959,4.3957,4.4031,4.4041,4.4065,4.4172,4.4193,4.4243,4.4168,4.4445,4.4452,4.4457,4.4484,4.4495,4.4503,0,0,0,0,0,4.364,4.3718,4.3716,4.3738,4.3858,4.3949,4.3965,4.3989,4.3963,4.4003,4.4042,4.4039,4.4224,4.4182,4.4205,4.4259,4.4443,4.445,4.4457,4.448,4.4493,4.4503,0,0,0,0,0,0,4.3655,4.3727,4.3726,4.3827,4.3882,4.3948,4.4,4.4001,4.4065,4.4061,4.4091,4.4108,4.4208,4.4243,4.4195,4.4367,4.4331,4.4343,4.434,4.4353,4.4362,4.4353,4.4175,0,0,0,0,0,4.367,4.3735,4.3795,4.3879,4.3906,4.3948,4.3989,4.4003,4.4061,4.4085,4.4131,4.419,4.4262,4.4309,4.4378,4.4489,4.4508,4.4538,4.4547,4.4555,4.4566,4.4631,4.4647,4.4484,4.4484,4.4484,0,0,4.3702,4.3749,4.3788,4.3883,4.3927,4.3997,4.3968,4.4042,4.4096,4.4097,4.4194,4.423,4.4298,4.4405,4.4454,4.4438,4.4615,4.4564,4.4569,4.4577,4.464,4.4656,4.4669,4.4489,4.4488,4.4487,0,0,4.3796,4.3836,4.3913,4.3957,4.4024,4.4052,4.407,4.4137,4.4161,4.4258,4.4262,4.4327,4.4449,4.4499,4.454,4.4656,4.4657,4.4678,4.4729,4.4792,4.4805,4.4817,4.4862,4.4877,4.4688,4.4688,4.4688,0,4.3828,4.3931,4.3952,4.4028,4.4071,4.4074,4.4154,4.4197,4.4283,4.4315,4.4294,4.445,4.4496,4.4616,4.4645,4.4677,4.4702,4.467,4.4801,4.4813,4.4824,4.4868,4.4884,4.4691,4.469,4.469,4.469,0,4.3969,4.404,4.4094,4.4177,4.4226,4.4303,4.4339,4.4387,4.4398,4.4429,4.453,4.4586,4.4668,4.4697,4.4708,4.482,4.4808,4.4794,4.4759,4.4842,4.4883,4.49,4.4694,4.4693,4.4692,4.4692,0,0,4.4077,4.417,4.419,4.4229,4.4304,4.4361,4.444,4.4519,4.4561,4.4621,4.4691,4.4795,4.4784,4.4831,4.4848,4.4903,4.4996,4.4883,4.4885,4.4905,4.5128,4.514,4.5159,4.4996,4.5,4.5002,4.5124,0,4.4181,4.4319,4.4342,4.4464,4.4533,4.4538,4.4608,4.4663,4.4695,4.476,4.4796,4.4871,4.4848,4.4877,4.4931,4.4973,4.5042,4.4964,4.5066,4.5069,4.5051,4.518,4.5193,4.5304,4.5139,4.5142,4.5144,0,4.4322,4.4385,4.4513,4.4582,4.4612,4.4673,4.4749,4.481,4.4875,4.4894,4.4947,4.4959,4.5045,4.5004,4.5126,4.5072,4.5115,4.5142,4.5147,4.516,4.5113,4.5199,4.534,4.5358,4.5169,4.5167,4.5165,0,4.4392,4.4509,4.4602,4.4635,4.4715,4.476,4.4796,4.4857,4.4904,4.4971,4.5003,4.5079,4.5122,4.5183,4.5217,4.5183,4.5337,4.5298,4.536,4.5359,4.5394,4.5392,4.5547,4.5416,4.5416,4.5416,4.5415,0,4.4509,4.4588,4.4635,4.4693,4.4783,4.481,4.49,4.4936,4.4991,4.5058,4.5067,4.5131,4.5169,4.524,4.5266,4.5366,4.5384,4.5405,4.5412,4.5406,4.5404,4.5437,4.5431,4.542,4.5419,4.5418,4.5418,0,4.4603,4.4637,4.4739,4.4807,4.4827,4.4891,4.4951,4.5009,4.5041,4.5126,4.5148,4.5199,4.5283,4.5321,4.5425,4.5443,4.5557,4.5557,4.5535,4.5538,4.5599,4.5594,4.5782,4.581,4.5658,4.566,4.5661,0,4.4676,4.4738,4.4813,4.4857,4.4894,4.4966,4.5014,4.5044,4.5094,4.5173,4.5223,4.5306,4.5375,4.5509,4.5557,4.5638,4.5642,4.5702,4.5654,4.5648,4.5647,4.5644,4.5652,4.5712,4.5714,4.5715,4.5716,0,4.4805,4.4819,4.4886,4.4961,4.5017,4.5077,4.5137,4.5174,4.5214,4.527,4.5355,4.5408,4.5513,4.5598,4.5682,4.5723,4.5728,4.573,4.5749,4.5746,4.5732,4.5744,4.5562,4.5726,4.5725,4.5724,4.5724,4.5723,4.4894,4.495,4.5012,4.5087,4.5135,4.5191,4.525,4.5288,4.5359,4.5446,4.546,4.5551,4.5618,4.573,4.5774,4.5849,4.5835,4.5862,4.5869,4.5876,4.5881,4.5717,4.5864,4.5864,4.5863,4.5863,4.5863,0,4.5026,4.5066,4.5135,4.5217,4.5278,4.5274,4.534,4.5393,4.5472,4.5532,4.5599,4.5699,4.5781,4.5836,4.592,4.597,4.5974,4.5991,4.5989,4.6,4.5887,4.5864,4.5986,4.5986,4.5986,4.5986,4.5986,4.5986,4.5101,4.5197,4.5219,4.534,4.538,4.5468,4.5507,4.556,4.5609,4.5718,4.5786,4.582,4.588,4.5969,4.6046,4.606,4.6093,4.6111,4.6125,4.602,4.6007,4.5995,4.5973,4.6117,4.6117,4.6232,4.6233,4.6234]},{"header":{"parameterUnit":"m.s-1","parameterCategory":1,"la1":30.2991,"la2":30.254,"lo1":-89.0895,"lo2":-89.0444,"dy":0.0017,"dx":0.0017,"nx":28,"ny":28,"refTime":"2025-05-29T21:00:00:Z","depth":0,"parameterNumber":3,"parameterNumberName":"V-component_of_WINDS"},"data":[0,0,0,0,0,0,0,0,0,0,0,0,0,0,0,0,0,0,0,0,0,0,0,0,0,0,0,0,0,0,0,0,0,0,0,0,0,0,0,0,0,0,0,0,0,0,0,0,0,0,0,0,0,0,0,0,0,0,0.4575,0.4575,0,0.4595,0.4595,0.4595,0.4577,0.4576,0.4575,0.4575,0.4596,0.4597,0.4599,0,0,0,0,0,0,0,0,0,0,0,0,0,0.4522,0.4523,0.4575,0.4575,0.4576,0.4595,0.4595,0.4595,0.4577,0.4576,0.4575,0.4574,0.4596,0.4597,0.4599,0,0,0,0,0,0,0,0,0,0,0,0,0,0.4544,0.4524,0.4575,0.4569,0.4568,0.4594,0.4595,0.4595,0.4577,0.4576,0.4575,0.4574,0.4595,0.4597,0.4599,0.4633,0,0,0.4605,0.4606,0,0,0,0,0,0,0,0,0.4543,0.4546,0.4569,0.4569,0.4569,0.4582,0.4584,0.4608,0.4578,0.4574,0.4575,0.4573,0.4593,0.4595,0.4601,0.4634,0.4635,0.4605,0.4606,0.4607,0.4607,0,0,0,0,0,0,0,0.4541,0.4545,0.4583,0.457,0.4569,0.4565,0.4567,0.4588,0.4589,0.4574,0.4573,0.4575,0.4592,0.4599,0.4601,0.4635,0.4605,0.4607,0.4608,0.4608,0.4694,0.4695,0,0,0,0,0,0,0.454,0.4544,0.4582,0.4583,0.4553,0.4567,0.4569,0.4579,0.4589,0.4589,0.4576,0.4574,0.4596,0.4599,0.4602,0.464,0.4607,0.4609,0.461,0.4693,0.4694,0.4695,0,0,0,0,0,0,0.4539,0.4544,0.4581,0.4563,0.4568,0.4569,0.458,0.458,0.4587,0.459,0.4591,0.4583,0.4596,0.4599,0.4624,0.464,0.461,0.4611,0.4691,0.4693,0.4695,0.4718,0,0,0,0,0,0,0.4538,0.4543,0.4557,0.4564,0.4569,0.4604,0.4581,0.4581,0.459,0.4588,0.4597,0.4597,0.4595,0.4622,0.4626,0.4642,0.4613,0.469,0.4692,0.4694,0.4715,0.472,0.4724,0,0,0,0,0,0.4536,0.4563,0.4557,0.4562,0.4585,0.4605,0.4608,0.4604,0.4591,0.4604,0.4606,0.4597,0.4638,0.4624,0.4629,0.4646,0.4689,0.4691,0.4694,0.4714,0.4719,0.4724,0,0,0,0,0,0,0.4559,0.4564,0.4558,0.4588,0.4596,0.4602,0.4618,0.461,0.4623,0.462,0.4615,0.4618,0.4644,0.4648,0.4633,0.4678,0.4661,0.4665,0.4674,0.468,0.4684,0.4682,0.4614,0,0,0,0,0,0.4568,0.4583,0.4587,0.4613,0.4617,0.4617,0.4626,0.4622,0.463,0.4634,0.4638,0.4646,0.4661,0.4671,0.4685,0.4716,0.4717,0.473,0.4734,0.4737,0.474,0.4755,0.476,0.4704,0.4704,0.4704,0,0,0.4586,0.459,0.4601,0.4618,0.4624,0.4639,0.462,0.4638,0.465,0.4637,0.466,0.4663,0.4672,0.47,0.4713,0.4704,0.4756,0.4741,0.4743,0.4745,0.4758,0.4764,0.4768,0.4705,0.4705,0.4705,0,0,0.4626,0.4632,0.4653,0.4659,0.4667,0.4667,0.4672,0.4678,0.4679,0.4703,0.4692,0.4706,0.4732,0.4738,0.4745,0.4785,0.4776,0.479,0.4811,0.4825,0.483,0.4834,0.4846,0.4851,0.4793,0.4793,0.4793,0,0.4648,0.4671,0.4666,0.4684,0.4691,0.4678,0.4699,0.4706,0.4718,0.4723,0.4714,0.4744,0.475,0.4778,0.4787,0.4794,0.4798,0.4788,0.483,0.4833,0.4837,0.4849,0.4854,0.4794,0.4794,0.4794,0.4794,0,0.4696,0.4712,0.4729,0.4739,0.4749,0.4768,0.4765,0.4775,0.477,0.477,0.4793,0.4799,0.4812,0.4819,0.4815,0.4846,0.484,0.483,0.4813,0.4844,0.4855,0.486,0.4796,0.4796,0.4795,0.4795,0,0,0.4753,0.4759,0.4765,0.4769,0.4776,0.4788,0.4807,0.4819,0.4827,0.4836,0.485,0.4871,0.4861,0.4869,0.4865,0.4878,0.4907,0.4866,0.4866,0.4872,0.4939,0.4945,0.4951,0.4901,0.4902,0.4903,0.4937,0,0.4792,0.4823,0.4818,0.4848,0.4862,0.4849,0.4865,0.4871,0.4871,0.4883,0.4883,0.4897,0.4884,0.4888,0.49,0.4901,0.492,0.4898,0.4914,0.4915,0.4911,0.4957,0.4964,0.4996,0.4942,0.4943,0.4943,0,0.4843,0.4851,0.4882,0.4885,0.4891,0.4905,0.4915,0.4926,0.4932,0.4931,0.4938,0.4932,0.4949,0.4932,0.4955,0.4941,0.4947,0.4948,0.4949,0.4949,0.493,0.4957,0.5007,0.5011,0.495,0.495,0.4949,0,0.4878,0.4898,0.4919,0.4923,0.4927,0.4937,0.4939,0.4944,0.4951,0.496,0.4964,0.4975,0.4981,0.4989,0.4985,0.4973,0.5008,0.4991,0.5007,0.5007,0.5015,0.5014,0.5065,0.5021,0.5021,0.5021,0.5021,0,0.4922,0.4941,0.4934,0.4947,0.4967,0.4961,0.4981,0.4982,0.4986,0.4998,0.4989,0.5,0.4995,0.5006,0.5003,0.5022,0.5025,0.5024,0.5023,0.5024,0.5024,0.5027,0.5024,0.5022,0.5022,0.5021,0.5021,0,0.4966,0.4962,0.4983,0.4985,0.4985,0.5,0.5001,0.5013,0.5011,0.5027,0.503,0.5028,0.504,0.5037,0.5051,0.5049,0.5072,0.5069,0.5069,0.5068,0.5083,0.5081,0.5137,0.5143,0.5097,0.5097,0.5097,0,0.4993,0.5007,0.501,0.5016,0.5019,0.503,0.5037,0.5031,0.5038,0.5044,0.5054,0.5065,0.5074,0.5094,0.5093,0.5103,0.5099,0.5118,0.5101,0.5101,0.5098,0.5096,0.5097,0.5121,0.5122,0.5122,0.5123,0,0.5042,0.5039,0.5048,0.5056,0.5063,0.507,0.5076,0.5082,0.5076,0.5084,0.5096,0.5102,0.5115,0.5126,0.5134,0.5137,0.5128,0.5128,0.5132,0.5133,0.5132,0.5131,0.5077,0.5127,0.5126,0.5126,0.5126,0.5126,0.5077,0.5088,0.509,0.51,0.5104,0.5108,0.5118,0.5117,0.5127,0.5136,0.5132,0.5145,0.5149,0.5159,0.5162,0.5172,0.5165,0.5171,0.5172,0.5174,0.5175,0.5131,0.5174,0.5174,0.5174,0.5174,0.5173,0,0.5124,0.5124,0.5133,0.514,0.5148,0.5139,0.5144,0.5151,0.5162,0.5166,0.5173,0.5186,0.5196,0.5195,0.5204,0.5212,0.5208,0.5214,0.5213,0.5213,0.5181,0.5176,0.5217,0.5217,0.5217,0.5217,0.5217,0.5217,0.5149,0.5166,0.5162,0.5181,0.5181,0.5193,0.5196,0.52,0.5203,0.5217,0.5224,0.5224,0.5226,0.5234,0.5242,0.5242,0.5245,0.5252,0.525,0.522,0.5216,0.5212,0.5207,0.5253,0.5253,0.5281,0.5282,0.5282]}]]